| time (UTC) | temp C | wind direction | speed KPH | gust KPH | rain 1hr cm | rain 24hr cm | rain mn cm | humidity % | barometer mb |
| 20260906233637 | 28 | 287 | 4.8 | 24.1 | 0.00 | 0.00 | 0.00 | 22 | 1017.6 |
| 20260906232715 | 29 | 284 | 3.2 | 22.5 | 0.00 | 0.00 | 0.00 | 21 | 1017.6 |
| 20260906231816 | 30 | 284 | 4.8 | 16.1 | 0.00 | 0.00 | 0.00 | 20 | 1017.6 |
| 20260906230915 | 31 | 243 | 3.2 | 16.1 | 0.00 | 0.00 | 0.00 | 19 | 1017.6 |
| 20260906230036 | 31 | 306 | 6.4 | 24.1 | 0.00 | 0.00 | 0.00 | 19 | 1017.6 |
| 20260906225415 | 32 | 335 | 8.0 | 17.7 | 0.00 | 0.00 | 0.00 | 19 | 1017.6 |
| 20260906224516 | 32 | 313 | 4.8 | 17.7 | 0.00 | 0.00 | 0.00 | 18 | 1017.6 |
| 20260906223615 | 31 | 306 | 3.2 | 12.9 | 0.00 | 0.00 | 0.00 | 19 | 1017.6 |
| 20260906222715 | 31 | 288 | 4.8 | 17.7 | 0.00 | 0.00 | 0.00 | 19 | 1017.6 |
| 20260906221816 | 31 | 304 | 6.4 | 14.5 | 0.00 | 0.00 | 0.00 | 19 | 1017.6 |
| 20260906220916 | 31 | 294 | 8.0 | 22.5 | 0.00 | 0.00 | 0.00 | 19 | 1017.6 |
| 20260906220037 | 31 | 342 | 9.7 | 24.1 | 0.00 | 0.00 | 0.00 | 19 | 1017.6 |
| 20260906215436 | 31 | 14 | 8.0 | 16.1 | 0.00 | 0.00 | 0.00 | 20 | 1017.6 |
| 20260906214516 | 31 | 28 | 4.8 | 14.5 | 0.00 | 0.00 | 0.00 | 21 | 1017.6 |
| 20260906213615 | 31 | 21 | 6.4 | 16.1 | 0.00 | 0.00 | 0.00 | 20 | 1017.6 |
| 20260906212716 | 32 | 21 | 8.0 | 16.1 | 0.00 | 0.00 | 0.00 | 19 | 1017.6 |
| 20260906211837 | 33 | 19 | 8.0 | 16.1 | 0.00 | 0.00 | 0.00 | 18 | 1017.6 |
| 20260906210915 | 33 | 32 | 6.4 | 14.5 | 0.00 | 0.00 | 0.00 | 18 | 1017.6 |
| 20260906210015 | 33 | 29 | 8.0 | 19.3 | 0.00 | 0.00 | 0.00 | 18 | 1017.6 |
| 20260906205436 | 32 | 32 | 8.0 | 17.7 | 0.00 | 0.00 | 0.00 | 19 | 1017.6 |
| 20260906204515 | 31 | 35 | 6.4 | 14.5 | 0.00 | 0.00 | 0.00 | 19 | 1017.6 |
| 20260906203616 | 31 | 37 | 6.4 | 11.3 | 0.00 | 0.00 | 0.00 | 21 | 1017.6 |
| 20260906202736 | 31 | 39 | 6.4 | 16.1 | 0.00 | 0.00 | 0.00 | 20 | 1017.6 |
| 20260906201815 | 31 | 44 | 4.8 | 11.3 | 0.00 | 0.00 | 0.00 | 20 | 1017.6 |
| 20260906200916 | 31 | 49 | 3.2 | 11.3 | 0.00 | 0.00 | 0.00 | 20 | 1017.6 |
| 20260906200016 | 31 | 46 | 4.8 | 11.3 | 0.00 | 0.00 | 0.00 | 19 | 1017.6 |
| 20260906195415 | 31 | 49 | 6.4 | 11.3 | 0.00 | 0.00 | 0.00 | 20 | 1017.6 |
| 20260906194516 | 31 | 51 | 4.8 | 11.3 | 0.00 | 0.00 | 0.00 | 19 | 1017.6 |
| 20260906193616 | 30 | 50 | 6.4 | 11.3 | 0.00 | 0.00 | 0.00 | 20 | 1017.6 |
| 20260906192715 | 31 | 26 | 3.2 | 9.7 | 0.00 | 0.00 | 0.00 | 20 | 1017.6 |
| 20260906191815 | 31 | 27 | 4.8 | 14.5 | 0.00 | 0.00 | 0.00 | 20 | 1017.6 |
| 20260906190915 | 31 | 38 | 3.2 | 14.5 | 0.00 | 0.00 | 0.00 | 18 | 1017.6 |
| 20260906190015 | 31 | 49 | 3.2 | 9.7 | 0.00 | 0.00 | 0.00 | 17 | 1017.6 |
| 20260906185416 | 31 | 55 | 4.8 | 9.7 | 0.00 | 0.00 | 0.00 | 16 | 1017.6 |
| 20260906184537 | 31 | 57 | 1.6 | 9.7 | 0.00 | 0.00 | 0.00 | 18 | 1017.6 |
| 20260906183616 | 30 | 26 | 1.6 | 8.0 | 0.00 | 0.00 | 0.00 | 19 | 1017.6 |
| 20260906182715 | 30 | 24 | 3.2 | 9.7 | 0.00 | 0.00 | 0.00 | 21 | 1017.6 |
| 20260906181815 | 30 | 71 | 1.6 | 8.0 | 0.00 | 0.00 | 0.00 | 20 | 1017.6 |
| 20260906180915 | 30 | 73 | 1.6 | 6.4 | 0.00 | 0.00 | 0.00 | 21 | 1017.6 |
| 20260906180015 | 30 | 73 | 0.0 | 8.0 | 0.00 | 0.00 | 0.00 | 22 | 1017.6 |
| 20260906175437 | 30 | 73 | 0.0 | 4.8 | 0.00 | 0.00 | 0.00 | 22 | 1017.6 |
| 20260906174516 | 28 | 73 | 0.0 | 4.8 | 0.00 | 0.00 | 0.00 | 23 | 1017.6 |
| 20260906173615 | 28 | 73 | 1.6 | 8.0 | 0.00 | 0.00 | 0.00 | 25 | 1017.6 |
| 20260906172716 | 27 | 73 | 3.2 | 11.3 | 0.00 | 0.00 | 0.00 | 24 | 1017.6 |
| 20260906171837 | 27 | 74 | 4.8 | 14.5 | 0.00 | 0.00 | 0.00 | 24 | 1017.6 |
| 20260906170915 | 27 | 83 | 3.2 | 11.3 | 0.00 | 0.00 | 0.00 | 23 | 1017.6 |
| 20260906170016 | 27 | 72 | 3.2 | 16.1 | 0.00 | 0.00 | 0.00 | 25 | 1017.6 |
| 20260906165415 | 27 | 57 | 0.0 | 8.0 | 0.00 | 0.00 | 0.00 | 23 | 1017.6 |
| 20260906164516 | 27 | 50 | 3.2 | 9.7 | 0.00 | 0.00 | 0.00 | 25 | 1017.6 |
| 20260906163637 | 26 | 65 | 3.2 | 9.7 | 0.00 | 0.00 | 0.00 | 25 | 1017.6 |
| 20260906162716 | 26 | 55 | 3.2 | 17.7 | 0.00 | 0.00 | 0.00 | 25 | 1017.6 |
| 20260906161837 | 25 | 55 | 0.0 | 6.4 | 0.00 | 0.00 | 0.00 | 27 | 1017.6 |
| 20260906160915 | 24 | 202 | 0.0 | 8.0 | 0.00 | 0.00 | 0.00 | 30 | 1017.6 |
| 20260906160016 | 23 | 205 | 4.8 | 16.1 | 0.00 | 0.00 | 0.00 | 29 | 1017.6 |
| 20260906155415 | 23 | 207 | 4.8 | 16.1 | 0.00 | 0.00 | 0.00 | 30 | 1017.6 |
| 20260906154516 | 23 | 212 | 4.8 | 16.1 | 0.00 | 0.00 | 0.00 | 30 | 1017.6 |
| 20260906153616 | 22 | 192 | 3.2 | 14.5 | 0.00 | 0.00 | 0.00 | 30 | 1017.6 |
| 20260906152737 | 22 | 200 | 6.4 | 19.3 | 0.00 | 0.00 | 0.00 | 32 | 1017.6 |
| 20260906151816 | 21 | 199 | 8.0 | 19.3 | 0.00 | 0.00 | 0.00 | 33 | 1017.6 |
| 20260906150916 | 21 | 197 | 9.7 | 17.7 | 0.00 | 0.00 | 0.00 | 34 | 1017.6 |
| 20260906150016 | 21 | 197 | 3.2 | 17.7 | 0.00 | 0.00 | 0.00 | 34 | 1017.6 |
| 20260906145416 | 21 | 65 | 3.2 | 12.9 | 0.00 | 0.00 | 0.00 | 35 | 1017.6 |
| 20260906144516 | 21 | 85 | 3.2 | 11.3 | 0.00 | 0.00 | 0.00 | 35 | 1017.6 |
| 20260906143616 | 21 | 0 | 0.0 | 3.2 | 0.00 | 0.00 | 0.00 | 36 | 1017.6 |
| 20260906142716 | 20 | 223 | 0.0 | 8.0 | 0.00 | 0.00 | 0.00 | 36 | 1017.6 |
| 20260906141815 | 20 | 222 | 0.0 | 8.0 | 0.00 | 0.00 | 0.00 | 37 | 1017.6 |
| 20260906140916 | 19 | 212 | 3.2 | 16.1 | 0.00 | 0.00 | 0.00 | 37 | 1017.6 |
| 20260906140016 | 18 | 227 | 1.6 | 9.7 | 0.00 | 0.00 | 0.00 | 39 | 1017.6 |
| 20260906135416 | 18 | 234 | 3.2 | 9.7 | 0.00 | 0.00 | 0.00 | 40 | 1017.6 |
| 20260906134516 | 17 | 0 | 0.0 | 0.0 | 0.00 | 0.00 | 0.00 | 41 | 1017.6 |
| 20260906133616 | 18 | 234 | 1.6 | 8.0 | 0.00 | 0.00 | 0.00 | 40 | 1017.6 |
| 20260906132716 | 18 | 234 | 3.2 | 14.5 | 0.00 | 0.00 | 0.00 | 39 | 1017.6 |
| 20260906131816 | 18 | 233 | 3.2 | 16.1 | 0.00 | 0.00 | 0.00 | 38 | 1017.6 |
| 20260906130916 | 17 | 237 | 3.2 | 16.1 | 0.00 | 0.00 | 0.00 | 39 | 1017.6 |
| 20260906130016 | 17 | 0 | 0.0 | 1.6 | 0.00 | 0.00 | 0.00 | 43 | 1017.6 |
| 20260906125416 | 17 | 239 | 0.0 | 1.6 | 0.00 | 0.00 | 0.00 | 42 | 1017.6 |
| 20260906124516 | 17 | 0 | 0.0 | 0.0 | 0.00 | 0.00 | 0.00 | 42 | 1017.6 |
| 20260906123616 | 18 | 238 | 1.6 | 9.7 | 0.00 | 0.00 | 0.00 | 41 | 1017.6 |
| 20260906122716 | 18 | 243 | 1.6 | 12.9 | 0.00 | 0.00 | 0.00 | 40 | 1017.6 |
| 20260906121816 | 17 | 246 | 1.6 | 8.0 | 0.00 | 0.00 | 0.00 | 42 | 1017.6 |
| 20260906120916 | 17 | 246 | 0.0 | 8.0 | 0.00 | 0.00 | 0.00 | 44 | 1017.6 |
| 20260906120016 | 16 | 0 | 0.0 | 0.0 | 0.00 | 0.00 | 0.00 | 47 | 1017.6 |
| 20260906115416 | 16 | 0 | 0.0 | 0.0 | 0.00 | 0.00 | 0.00 | 49 | 1017.6 |
| 20260906114516 | 16 | 0 | 0.0 | 1.6 | 0.00 | 0.00 | 0.00 | 49 | 1017.6 |
| 20260906113637 | 15 | 0 | 0.0 | 1.6 | 0.00 | 0.00 | 0.00 | 51 | 1017.6 |
| 20260906112716 | 15 | 0 | 0.0 | 0.0 | 0.00 | 0.00 | 0.00 | 55 | 1017.6 |
| 20260906111816 | 15 | 0 | 0.0 | 0.0 | 0.00 | 0.00 | 0.00 | 55 | 1017.6 |
| 20260906110916 | 15 | 0 | 0.0 | 0.0 | 0.00 | 0.00 | 0.00 | 56 | 1017.6 |
| 20260906110037 | 15 | 0 | 0.0 | 0.0 | 0.00 | 0.00 | 0.00 | 54 | 1017.6 |
| 20260906105437 | 15 | 0 | 0.0 | 0.0 | 0.00 | 0.00 | 0.00 | 55 | 1017.6 |
| 20260906104516 | 15 | 0 | 0.0 | 0.0 | 0.00 | 0.00 | 0.00 | 55 | 1017.6 |
| 20260906103616 | 15 | 0 | 0.0 | 0.0 | 0.00 | 0.00 | 0.00 | 56 | 1017.6 |
| 20260906102737 | 15 | 0 | 0.0 | 0.0 | 0.00 | 0.00 | 0.00 | 57 | 1017.6 |
| 20260906101816 | 15 | 0 | 0.0 | 0.0 | 0.00 | 0.00 | 0.00 | 55 | 1017.6 |
| 20260906100937 | 15 | 0 | 0.0 | 0.0 | 0.00 | 0.00 | 0.00 | 56 | 1017.6 |
| 20260906100016 | 16 | 0 | 0.0 | 0.0 | 0.00 | 0.00 | 0.00 | 55 | 1017.6 |
| 20260906095416 | 16 | 0 | 0.0 | 0.0 | 0.00 | 0.00 | 0.00 | 54 | 1017.6 |
| 20260906094516 | 16 | 0 | 0.0 | 0.0 | 0.00 | 0.00 | 0.00 | 52 | 1017.6 |
| 20260906093616 | 16 | 0 | 0.0 | 0.0 | 0.00 | 0.00 | 0.00 | 51 | 1017.6 |
| 20260906092716 | 16 | 0 | 0.0 | 0.0 | 0.00 | 0.00 | 0.00 | 50 | 1017.6 |
| 20260906091837 | 17 | 0 | 0.0 | 0.0 | 0.00 | 0.00 | 0.00 | 49 | 1017.6 |
| 20260906090916 | 17 | 0 | 0.0 | 0.0 | 0.00 | 0.00 | 0.00 | 47 | 1017.6 |
| 20260906090016 | 17 | 0 | 0.0 | 0.0 | 0.00 | 0.00 | 0.00 | 48 | 1017.6 |
| 20260906085416 | 17 | 0 | 0.0 | 0.0 | 0.00 | 0.00 | 0.00 | 47 | 1017.6 |
| 20260906084516 | 17 | 0 | 0.0 | 0.0 | 0.00 | 0.00 | 0.00 | 47 | 1017.6 |
| 20260906083637 | 17 | 0 | 0.0 | 0.0 | 0.00 | 0.00 | 0.00 | 46 | 1017.6 |
| 20260906082716 | 17 | 0 | 0.0 | 0.0 | 0.00 | 0.00 | 0.00 | 47 | 1017.6 |
| 20260906081816 | 17 | 0 | 0.0 | 0.0 | 0.00 | 0.00 | 0.00 | 45 | 1017.6 |
| 20260906080916 | 17 | 246 | 0.0 | 1.6 | 0.00 | 0.00 | 0.00 | 46 | 1017.6 |
| 20260906080016 | 17 | 0 | 0.0 | 0.0 | 0.00 | 0.00 | 0.00 | 47 | 1017.6 |
| 20260906075437 | 17 | 0 | 0.0 | 0.0 | 0.00 | 0.00 | 0.00 | 47 | 1017.6 |
| 20260906074537 | 18 | 0 | 0.0 | 0.0 | 0.00 | 0.00 | 0.00 | 45 | 1017.6 |
| 20260906073616 | 18 | 0 | 0.0 | 0.0 | 0.00 | 0.00 | 0.00 | 45 | 1017.6 |
| 20260906072716 | 18 | 0 | 0.0 | 0.0 | 0.00 | 0.00 | 0.00 | 43 | 1017.6 |
| 20260906071816 | 18 | 0 | 0.0 | 0.0 | 0.00 | 0.00 | 0.00 | 43 | 1017.6 |
| 20260906070916 | 19 | 0 | 0.0 | 0.0 | 0.00 | 0.00 | 0.00 | 43 | 1017.6 |
| 20260906070016 | 19 | 0 | 0.0 | 0.0 | 0.00 | 0.00 | 0.00 | 40 | 1017.6 |
| 20260906065416 | 20 | 0 | 0.0 | 0.0 | 0.00 | 0.00 | 0.00 | 40 | 1017.6 |
| 20260906064516 | 20 | 0 | 0.0 | 0.0 | 0.00 | 0.00 | 0.00 | 38 | 1017.6 |
| 20260906063616 | 21 | 0 | 0.0 | 0.0 | 0.00 | 0.00 | 0.00 | 35 | 1017.6 |
| 20260906062737 | 22 | 0 | 0.0 | 0.0 | 0.00 | 0.00 | 0.00 | 32 | 1017.6 |
| 20260906061816 | 23 | 246 | 1.6 | 6.4 | 0.00 | 0.00 | 0.00 | 24 | 1017.6 |
| 20260906060937 | 22 | 246 | 1.6 | 8.0 | 0.00 | 0.00 | 0.00 | 24 | 1017.6 |
| 20260906060016 | 23 | 0 | 0.0 | 0.0 | 0.00 | 0.00 | 0.00 | 27 | 1017.6 |
| 20260906055416 | 23 | 0 | 0.0 | 0.0 | 0.00 | 0.00 | 0.00 | 25 | 1017.6 |
| 20260906054516 | 24 | 0 | 0.0 | 0.0 | 0.00 | 0.00 | 0.00 | 23 | 1017.6 |
| 20260906053616 | 25 | 0 | 0.0 | 0.0 | 0.00 | 0.00 | 0.00 | 20 | 1017.6 |
| 20260906052716 | 25 | 246 | 0.0 | 3.2 | 0.00 | 0.00 | 0.00 | 20 | 1017.6 |
| 20260906051816 | 25 | 246 | 1.6 | 11.3 | 0.00 | 0.00 | 0.00 | 21 | 1017.6 |
| 20260906050937 | 25 | 246 | 3.2 | 11.3 | 0.00 | 0.00 | 0.00 | 21 | 1017.6 |
| 20260906050016 | 25 | 246 | 4.8 | 11.3 | 0.00 | 0.00 | 0.00 | 21 | 1017.6 |
| 20260906045416 | 25 | 246 | 3.2 | 8.0 | 0.00 | 0.00 | 0.00 | 21 | 1017.6 |
| 20260906044516 | 25 | 246 | 1.6 | 6.4 | 0.00 | 0.00 | 0.00 | 22 | 1017.6 |
| 20260906043616 | 26 | 246 | 1.6 | 11.3 | 0.00 | 0.00 | 0.00 | 21 | 1017.6 |
| 20260906042716 | 26 | 246 | 4.8 | 12.9 | 0.00 | 0.00 | 0.00 | 21 | 1017.6 |
| 20260906041816 | 26 | 246 | 4.8 | 11.3 | 0.00 | 0.00 | 0.00 | 21 | 1017.6 |
| 20260906040937 | 26 | 246 | 3.2 | 8.0 | 0.00 | 0.00 | 0.00 | 22 | 1017.6 |
| 20260906040016 | 26 | 249 | 3.2 | 11.3 | 0.00 | 0.00 | 0.00 | 22 | 1017.6 |
| 20260906035416 | 26 | 250 | 3.2 | 11.3 | 0.00 | 0.00 | 0.00 | 21 | 1017.6 |
| 20260906034516 | 26 | 243 | 1.6 | 12.9 | 0.00 | 0.00 | 0.00 | 20 | 1017.6 |
| 20260906033616 | 26 | 238 | 6.4 | 12.9 | 0.00 | 0.00 | 0.00 | 19 | 1017.6 |
| 20260906032716 | 26 | 238 | 6.4 | 9.7 | 0.00 | 0.00 | 0.00 | 19 | 1017.6 |
| 20260906031837 | 26 | 238 | 4.8 | 12.9 | 0.00 | 0.00 | 0.00 | 19 | 1017.6 |
| 20260906030916 | 27 | 238 | 4.8 | 12.9 | 0.00 | 0.00 | 0.00 | 19 | 1017.6 |
| 20260906030016 | 26 | 239 | 6.4 | 9.7 | 0.00 | 0.00 | 0.00 | 20 | 1017.6 |
| 20260906025416 | 26 | 240 | 6.4 | 9.7 | 0.00 | 0.00 | 0.00 | 21 | 1017.6 |
| 20260906024516 | 27 | 241 | 6.4 | 9.7 | 0.00 | 0.00 | 0.00 | 22 | 1017.6 |
| 20260906023616 | 27 | 241 | 4.8 | 9.7 | 0.00 | 0.00 | 0.00 | 24 | 1017.6 |
| 20260906022716 | 27 | 253 | 4.8 | 12.9 | 0.00 | 0.00 | 0.00 | 26 | 1017.6 |
| 20260906021816 | 27 | 32 | 1.6 | 6.4 | 0.00 | 0.00 | 0.00 | 26 | 1017.6 |
| 20260906020916 | 27 | 32 | 3.2 | 6.4 | 0.00 | 0.00 | 0.00 | 26 | 1017.6 |
| 20260906020016 | 26 | 32 | 1.6 | 6.4 | 0.00 | 0.00 | 0.00 | 27 | 1017.6 |
| 20260906015416 | 26 | 32 | 0.0 | 4.8 | 0.00 | 0.00 | 0.00 | 28 | 1017.6 |
| 20260906014516 | 26 | 0 | 0.0 | 0.0 | 0.00 | 0.00 | 0.00 | 29 | 1017.6 |
| 20260906013616 | 26 | 0 | 0.0 | 0.0 | 0.00 | 0.00 | 0.00 | 29 | 1017.6 |
| 20260906012716 | 27 | 0 | 0.0 | 0.0 | 0.00 | 0.00 | 0.00 | 31 | 1017.6 |
| 20260906011816 | 27 | 0 | 0.0 | 0.0 | 0.00 | 0.00 | 0.00 | 28 | 1017.6 |
| 20260906010916 | 28 | 0 | 0.0 | 0.0 | 0.00 | 0.00 | 0.00 | 26 | 1017.6 |
| 20260906010016 | 29 | 0 | 0.0 | 0.0 | 0.00 | 0.00 | 0.00 | 26 | 1017.6 |
| 20260906005416 | 29 | 0 | 0.0 | 0.0 | 0.00 | 0.00 | 0.00 | 24 | 1017.6 |
| 20260906004516 | 30 | 0 | 0.0 | 1.6 | 0.00 | 0.00 | 0.00 | 24 | 1017.6 |
| 20260906003637 | 30 | 32 | 1.6 | 9.7 | 0.00 | 0.00 | 0.00 | 23 | 1017.6 |
| 20260906002737 | 30 | 33 | 1.6 | 9.7 | 0.00 | 0.00 | 0.00 | 23 | 1017.6 |
| 20260906001816 | 31 | 32 | 1.6 | 9.7 | 0.00 | 0.00 | 0.00 | 23 | 1017.6 |
| 20260906000937 | 31 | 26 | 1.6 | 8.0 | 0.00 | 0.00 | 0.00 | 22 | 1017.6 |
| 20260906000016 | 32 | 23 | 0.0 | 8.0 | 0.00 | 0.00 | 0.00 | 21 | 1017.6 |
| 20260905235437 | 32 | 24 | 1.6 | 8.0 | 0.00 | 0.00 | 0.00 | 21 | 1017.6 |
| 20260905234516 | 32 | 19 | 3.2 | 11.3 | 0.00 | 0.00 | 0.00 | 21 | 1017.6 |